Regional Weather Roundup
Issued by NWS Wakefield, VA

Home | Current Version | Previous Version | Text Only | Print | Product List | Glossary Off
Versions: 1 2 3 4 5 6 7 8 9 10 11 12 13 14 15 16 17 18 19 20 21 22 23 24 25 26 27 28 29 30 31 32 33 34 35 36 37 38 39 40 41 42 43 44 45 46 47 48 49 50

000
ASUS41 KAKQ 260515
RWRAKQ

REGIONAL WEATHER ROUNDUP
NATIONAL WEATHER SERVICE WAKEFIELD VA
100 AM EDT TUE MAY 26 2015

Note: "fair" indicates few or no clouds below 12,000 feet with no
significant weather and/or obstructions to visibility. * = Denotes
station may not report precipitation (e.g., rain,snow,etc.),
thunder or fog.

VAZ042-051-052>054-056-260600-
NORTHERN VIRGINIA

CITY           SKY/WX    TMP DP  RH WIND       PRES   REMARKS
WASH NATIONAL  MOCLDY    72  62  71 S10       30.20F
DULLES         CLEAR     68  56  65 S6        30.19F
FORT BELVOIR   CLEAR     68  58  70 SE2       30.20F
QUANTICO       CLEAR     72  61  68 S15       30.21F
FREDERICKSBRG* CLEAR     68  59  72 S5        30.21S
STAFFORD*      CLEAR     63  57  81 CALM      30.25F
WARRENTON      CLEAR     67  58  73 CALM      30.20S
CULPEPER*      CLEAR     60  56  86 CALM      30.21S
MANASSAS*      CLEAR     68  57  68 S5        30.20S
LEESBURG*      CLEAR     70  61  73 CALM      30.21S
WINCHESTER     CLEAR     68  52  56 CALM      30.18F
FRONT ROYAL*   FAIR      68  55  64 S6        30.18S
LURAY*         FAIR      70  57  64 SW6       30.21S
$$

VAZ048-049-060>072-079>083-260600-
CENTRAL AND SOUTH CENTRAL VIRGINIA

CITY           SKY/WX    TMP DP  RH WIND       PRES   REMARKS
RICHMOND       CLEAR     69  59  70 S12       30.24F
CHESTERFIELD*  NOT AVBL
PETERSBURG*    CLEAR     66  59  78 S5        30.25F
HANOVER        CLEAR     68  59  73 VRB6      30.24F
TAPPAHANNOCK*  CLEAR     69  55  60 S7        30.24F
QUINTON*       FAIR      69  60  73 S5        30.24F
CHARLOTTSVILLE CLEAR     67  56  67 CALM      30.21F
GORDONSVILLE*  FAIR      58  56  93 CALM      30.21S
ORANGE*        CLEAR     64  57  77 CALM      30.23S
LOUISA*        CLEAR     68  57  68 S3        30.21F
BUMPASS*       FAIR      63  56  79 CALM      30.22F
FARMVILLE*     CLEAR     61  56  85 CALM      30.22S
CREWE*         FAIR      65  57  76 S3        30.24F
FORT PICKETT*  FAIR      66  59  77 S10G18    30.24F
CHASE CITY*    FAIR      70  62  75 S5        30.25S
CLARKSVILLE*   FAIR      66  59  77 S6        30.25S
SOUTH HILL*    CLEAR     66  59  77 S7        30.31F
LAWRENCEVILLE* FAIR      64  59  82 CALM      30.25F
EMPORIA*       CLEAR     63  59  88 SE5       30.28F
$$

VAZ088>098-260600-
SOUTHEAST VIRGINIA

CITY           SKY/WX    TMP DP  RH WIND       PRES   REMARKS
NORFOLK        CLEAR     69  59  70 S12       30.27F
VIRGINIA BEACH CLEAR     69  61  75 S7        30.27F
NORFOLK NAVAL  CLEAR     74  60  61 S9G17     30.28F
WEST POINT*    CLEAR     72  58  62 S10       30.27S
SALUDA*        FAIR      69  59  69 S13G22    30.24F
NEWPORT NEWS   CLEAR     73  60  63 S15       30.27F
LANGLEY AFB    CLEAR     69  60  73 SW10      30.26F
FORT EUSTIS    CLEAR     69  61  75 S8        30.25F
WILLIAMSBURG*  CLEAR     72  63  73 S12G17    30.27F
HR EXEC AP*    FAIR      66  59  77 S7        30.29F
FRANKLIN*      CLEAR     64  60  85 S7        30.28F
WAKEFIELD      CLEAR     68  60  75 S5        30.26F
$$

VAZ020-022-025-037-045-260600-
WEST CENTRAL AND SOUTHWEST VIRGINIA

CITY           SKY/WX    TMP DP  RH WIND       PRES   REMARKS
STAUNTON*      CLEAR     60  55  85 CALM      30.25S
WAYNESBORO*    FAIR      63  55  76 CALM      30.25S
HOT SPRINGS VA CLEAR     62  52  71 S9        30.32S
LYNCHBURG      CLEAR     60  56  86 CALM      30.26S
DANVILLE       CLEAR     67  57  70 S3        30.25S
SOUTH BOSTON*  FAIR      65  57  74 S5        30.25R
MARTINSVILLE   PTCLDY    58  58 100 CALM      30.28S
ROANOKE        PTCLDY    64  56  75 W3        30.26S
BLACKSBURG     MOCLDY    59  55  85 CALM      30.32S
DUBLIN*        MOCLDY    62  58  87 CALM      30.29S
MARION*        CLOUDY    69  58  67 NE5       30.30F
HILLSVILLE*    CLOUDY    65  58  76 S6        30.31S
RICHLANDS*     FAIR      67  57  69 SE5       30.26S
WISE*          MOCLDY    70  55  60 S10G17    30.27R
ABINGDON*      CLOUDY    69  58  69 CALM      30.25S
$$

MDZ021>025-VAZ099-100-260600-
SOUTHERN MARYLAND AND THE DELMARVA PENINSULA

CITY           SKY/WX    TMP DP  RH WIND       PRES   REMARKS
PATUXENT RIVER CLEAR     69  59  70 S10       30.22F
BAY BRIDGE APT   N/A    N/A N/A N/A S10       30.21F
LEONARDTOWN    CLEAR     68  57  68 S6        30.24F
DOVER          CLEAR     65  59  81 S9        30.19F
GEORGETOWN     CLEAR     65  58  78 S8        30.25F
EASTON         CLEAR     70  63  78 S9        30.26F
CAMBRIDGE      CLEAR     72  61  68 S6        30.23F
SALISBURY      CLEAR     63  58  83 S6        30.25F
OCEAN CITY     CLEAR     66  60  81 SW10      30.27F
WALLOPS ISLAND CLEAR     65  62  90 S14       30.27F
ACCOMACK*      CLEAR     68  63  83 S9G16     30.27F
$$

NCZ012>017-030>032-260600-
NORTH CENTRAL AND EASTERN NORTH CAROLINA

CITY           SKY/WX    TMP DP  RH WIND       PRES   REMARKS
ROANOKE RAPIDS FAIR      64  59  82 S5        30.27F
RALEIGH        PTCLDY    70  60  70 S9        30.28S
ELIZABETH CITY CLEAR     67  62  84 S6        30.30F
AHOSKIE*       CLEAR     63  59  86 CALM      30.28F
EDENTON*       CLEAR     68  62  80 S8        30.30F
CURRITUCK*     CLEAR     69  60  74 CALM      30.30F
KILL DEVIL HLS CLEAR     71  62  74 S5        30.29F
MANTEO         CLEAR     72  63  75 SW13      30.31F
CAPE HATTERAS  CLEAR     72  61  68 S14       30.32F
TARBORO*       FAIR      67  61  81 CALM      30.28F
GOLDSBORO      CLEAR     66  62  87 CALM      30.26
WASHINGTON     CLEAR     68  62  79 S8        30.30F
GREENVILLE     CLEAR     68  63  83 S5        30.29F
NEW BERN       CLEAR     62  59  90 S3        30.31F
WILMINGTON     CLEAR     66  63  90 SE3       30.29F
$$

VAZ048-260600-
ELSEWHERE

CITY           SKY/WX    TMP DP  RH WIND       PRES   REMARKS
HARRISBURG PA  PTCLDY    71  60  68 S9        30.17F
BALTIMORE      CLEAR     67  59  75 CALM      30.20F
ANNAPOLIS      CLEAR     67  62  84 S7        30.20F
ANDREWS AFB    CLEAR     66  60  83 S8        30.20F
PHILADELPHIA   CLEAR     69  53  56 S7        30.22F
HENDERSON NC   CLEAR     66  57  74 S5        30.27S
GREENSBORO     PTCLDY    70  60  70 S10       30.26S
ROCKY MOUNT    CLEAR     67  61  81 S5        30.28F
$$

VAZ100-260600-
MARINE

STATION/POSITION TIME  TEMP    WIND        PRES    WAVE   SWELL
                       AIR SEA DIR/SP/G            HT/PER HT/PER
                 (UTC) (F)     (DEG/KT/KT) (MB)    (FT/S) (FT/S)
BRANDYWINE LGT   0400   67 65  210/ 17/ 19 1024.5F
CAPE MAY NJ      0400   65 68  170/  7/ 12 1024.4F
LEWES DE         0400   68 64  200/  6/  9 1024.5F
15NM E FENWICK I 0450   63 61              1024.6F   3/ 4
OCEAN-CITY-INLET 0400   63 68  210/ 10/ 12 1025.1F
WACHAPREAGUE VA  0400   69 72  220/  9/ 14 1025.3F
THOMAS POINT MD  0500   68 67  170/ 17/ 18 1023.4F
GOOSES REEF MD   0500   69 67  190/ 12/ 14 1024.1F   2/ 3
SOLOMONS ISLAND  0400      70                N/A
BISHOPS HEAD MD  0400   71 70  180/ 19/ 22 1023.8F
PINEY POINT MD   0400          180/  9/ 11   N/A
CAMBRIDGE MD     0400   70 71  170/  6/ 11 1023.9F
LEWISETTA VA     0400   70 71              1023.9F
RAPPAHANNOCK LGT 0400          180/ 17/ 19 1025.5F
STINGRAY PT      0500   71 70  200/ 14/ 17 1024.0F   2/ 3
YORK RVR RNG VA  0400   72     200/ 16/ 19 1024.5F
YORKTOWN VA      0400   71 72  190/ 11/ 16 1024.9F
JAMESTOWN VA     0500   69 74  200/ 12/ 14 1023.7F
DOMINION TERM VA 0400   71     190/ 12/ 15 1025.6F
KIPTOPEKE VA     0400      74  190/ 15/ 16   N/A
CHES BAY BRIDGE  0400   71 70  170/ 12/ 17 1025.3R
CAPE HENRY VA    0400   70     180/ 10/ 16 1024.6R
CHESAPEAKE LGHT  0400   67     190/ 19/ 19 1026.3R
WILLOUBY STN VA  0400   71     190/ 17/ 19 1026.1S
CAPE HENRY BUOY  0428      65                N/A     2/ 3
1ST LANDING BUOY 0500      69              1024.6F
CAPE CHARLES BUO 0426      68                N/A     2/ 4   2/ 9
OFFSHORE WE BUOY 0411      66                N/A     2/ 3   2/ 8
64NM E OF VA BCH 0450   66 64  180/  8/ 10 1026.0F   1/ 7   2/ 7
DUCK PIER NC     0400   72 62  180/ 11/ 13 1025.5R
44100 DUCK FRF   0424      65                N/A     1/ 7
44056 DUCK FRF   0411      64                N/A     1/ 7
OREGON INLET NC  0400   73 77  180/ 12/ 15 1026.8F
HATTERAS NC      0400   74 76  170/  8/ 12 1026.5F
DIAMOND SHLS NC  0450   74 76  170/ 14/ 16 1026.6F   3/ 6   2/ 8
CAPE LOOKOUT NC  0500   74     160/ 12/ 13 1026.0F
$$



USA.gov is the U.S. government's official web portal to all federal, state and local government web resources and services.